Weather History for KISW - November, 2012

Change the Weather History Date:

Wednesday, November 7, 2012

  Actual Average Record
Temperature  
Mean Temperature 34 °F -  
Max Temperature 36 °F 44 °F 70 °F (1949)
Min Temperature 33 °F 25 °F -4 °F (1991)
Degree Days  
Heating Degree Days 30    
Moisture  
Dew Point 33 °F    
Average Humidity 93    
Maximum Humidity 100    
Minimum Humidity 87    
Precipitation  
Precipitation 0.00 in - - ()
Sea Level Pressure  
Sea Level Pressure 30.07 in    
Wind  
Wind Speed 3 mph (NNE)    
Max Wind Speed 8 mph    
Max Gust Speed -    
Visibility 5 miles    
Events Fog    
Averages and records for this station are not official NWS values.
T = Trace of Precipitation, MM = Missing Value Source: NWS Daily Summary

Daily Weather History Graph

Daily Weather History Graph

Search for Another Location

Airport or City:

Trip Planner

Search our weather history database for the weather conditions in past years. The results will help you decide how hot, cold, wet, or windy it might be!

Date:

Astronomy

Nov. 07, 2012 Rise Set
Actual Time 6:45 AM CST 4:40 PM CST
Civil Twilight 6:14 AM CST 5:11 PM CST
Nautical Twilight 5:39 AM CST 5:45 PM CST
Astronomical Twilight 5:05 AM CST 6:19 PM CST
Moon No Moon Rise 1:03 PM CST (11/7)
Length of Visible Light 10h 56m
Length of Day
9h 55m
Last Quarter, 43% of the Moon is Illuminated
Nov 7
Last Quarter
Nov 13
New
Nov 20
First Quarter
Nov 28
Full
Dec 6
Last Quarter

Hourly Weather History & Observations

Time (CST) Temp. Windchill Dew Point Humidity Pressure Visibility Wind Dir Wind Speed Gust Speed Precip Events Conditions
12:54 AM 34.0 °F - 33.1 °F 96% 29.96 in 0.2 mi Calm Calm - N/A Fog Fog
1:14 AM 33.8 °F 30.8 °F 33.8 °F 100% 29.93 in 1.2 mi NE 3.5 mph - N/A   Overcast
1:20 AM 33.8 °F - 33.8 °F 100% 29.94 in 3.0 mi Calm Calm - N/A   Overcast
1:35 AM 33.8 °F 30.8 °F 33.8 °F 100% 29.95 in 5.0 mi NE 3.5 mph - N/A   Overcast
1:54 AM 34.0 °F 31.0 °F 33.1 °F 96% 29.99 in 5.0 mi North 3.5 mph - N/A   Overcast
2:04 AM 33.8 °F 28.6 °F 33.8 °F 100% 29.96 in 1.8 mi North 5.8 mph - N/A   Overcast
2:13 AM 33.8 °F 29.6 °F 33.8 °F 100% 29.97 in 1.0 mi North 4.6 mph - N/A   Overcast
2:29 AM 33.8 °F 28.6 °F 33.8 °F 100% 29.97 in 2.0 mi NNE 5.8 mph - N/A   Overcast
2:44 AM 33.8 °F 28.6 °F 32.0 °F 93% 29.97 in 3.0 mi NNE 5.8 mph - N/A   Overcast
2:54 AM 34.0 °F 27.2 °F 32.0 °F 92% 30.01 in 4.0 mi NNE 8.1 mph - N/A   Overcast
3:54 AM 34.0 °F 28.8 °F 32.0 °F 92% 30.02 in 4.0 mi North 5.8 mph - N/A   Overcast
4:06 AM 33.8 °F 29.6 °F 32.0 °F 93% 29.99 in 2.0 mi North 4.6 mph - N/A   Overcast
4:15 AM 33.8 °F 29.6 °F 32.0 °F 93% 30.00 in 1.8 mi North 4.6 mph - N/A   Overcast
4:30 AM 33.8 °F 27.7 °F 32.0 °F 93% 30.00 in 2.5 mi NNE 6.9 mph - N/A   Overcast
4:38 AM 33.8 °F 28.6 °F 32.0 °F 93% 30.00 in 3.0 mi NNE 5.8 mph - N/A   Overcast
4:54 AM 34.0 °F 28.8 °F 33.1 °F 96% 30.04 in 3.0 mi North 5.8 mph - N/A   Overcast
5:15 AM 33.8 °F 30.8 °F 33.8 °F 100% 30.01 in 2.5 mi NE 3.5 mph - N/A   Overcast
5:27 AM 33.8 °F 30.8 °F 33.8 °F 100% 30.01 in 3.0 mi NE 3.5 mph - N/A   Overcast
5:54 AM 34.0 °F 31.0 °F 33.1 °F 96% 30.06 in 4.0 mi Variable 3.5 mph - N/A   Overcast
6:28 AM 33.8 °F 30.8 °F 32.0 °F 93% 30.04 in 7.0 mi NE 3.5 mph - N/A   Overcast
6:54 AM 34.0 °F - 32.0 °F 92% 30.09 in 6.0 mi Calm Calm - N/A   Overcast
7:51 AM 33.8 °F - 32.0 °F 93% 30.08 in 4.0 mi Calm Calm - N/A   Overcast
7:54 AM 34.0 °F - 32.0 °F 92% 30.12 in 4.0 mi Calm Calm - N/A   Overcast
8:45 AM 33.8 °F - 32.0 °F 93% 30.09 in 2.5 mi Calm Calm - N/A   Overcast
8:54 AM 34.0 °F - 32.0 °F 92% 30.13 in 2.5 mi Calm Calm - N/A   Overcast
9:27 AM 33.8 °F 30.8 °F 32.0 °F 93% 30.10 in 3.0 mi WNW 3.5 mph - N/A   Overcast
9:54 AM 34.0 °F 31.0 °F 32.0 °F 92% 30.15 in 3.0 mi WNW 3.5 mph - N/A   Overcast
10:54 AM 35.1 °F - 33.1 °F 92% 30.15 in 4.0 mi Calm Calm - N/A   Overcast
11:54 AM 35.1 °F - 33.1 °F 92% 30.14 in 6.0 mi Calm Calm - N/A   Overcast
12:04 PM 35.6 °F - 33.8 °F 93% 30.10 in 8.0 mi Calm Calm - N/A   Overcast
12:54 PM 36.0 °F - 33.1 °F 89% 30.14 in 9.0 mi Calm Calm - N/A   Overcast
1:54 PM 36.0 °F 33.3 °F 33.1 °F 89% 30.13 in 7.0 mi WSW 3.5 mph - N/A   Overcast
2:54 PM 35.1 °F - 32.0 °F 89% 30.15 in 10.0 mi Calm Calm - N/A   Overcast
3:32 PM 35.6 °F - 32.0 °F 87% 30.11 in 10.0 mi Calm Calm - N/A   Overcast
3:54 PM 35.1 °F 32.2 °F 32.0 °F 89% 30.15 in 9.0 mi SSE 3.5 mph - N/A   Mostly Cloudy
4:47 PM 35.6 °F - 32.0 °F 87% 30.12 in 7.0 mi Calm Calm - N/A   Overcast
5:54 PM 34.0 °F 31.0 °F 32.0 °F 92% 30.17 in 6.0 mi SSE 3.5 mph - N/A   Overcast
6:46 PM 33.8 °F 30.8 °F 32.0 °F 93% 30.14 in 6.0 mi South 3.5 mph - N/A   Overcast
6:54 PM 34.0 °F 31.0 °F 32.0 °F 92% 30.17 in 6.0 mi South 3.5 mph - N/A   Overcast
7:12 PM 33.8 °F - 32.0 °F 93% 30.14 in 6.0 mi Calm Calm - N/A   Overcast
7:54 PM 34.0 °F - 32.0 °F 92% 30.17 in 7.0 mi Calm Calm - N/A   Overcast
8:54 PM 34.0 °F - 32.0 °F 92% 30.18 in 8.0 mi Calm Calm - N/A   Overcast
9:54 PM 34.0 °F - 32.0 °F 92% 30.17 in 9.0 mi Calm Calm - N/A   Overcast
10:54 PM 34.0 °F - 32.0 °F 92% 30.17 in 8.0 mi Calm Calm - N/A   Overcast
11:54 PM 35.1 °F 30.1 °F 32.0 °F 89% 30.17 in 9.0 mi South 5.8 mph - N/A   Overcast